Regional Weather Roundup
Issued by NWS

Home | Current Version | Previous Version | Text Only | Print | Product List | Glossary Off
Versions: 1 2 3 4 5 6 7 8 9 10 11 12 13 14 15 16 17 18 19 20 21 22 23 24 25 26 27 28 29 30 31 32 33 34 35 36 37 38 39 40 41 42 43 44 45 46 47 48 49 50

000
ASUS43 KDTX 311710
RWRMI
MICHIGAN HOURLY REGIONAL WEATHER ROUNDUP
NATIONAL WEATHER SERVICE DETROIT/PONTIAC MI
100 PM EDT MON AUG 31 2015

NOTE: "FAIR" INDICATES FEW OR NO CLOUDS BELOW 12,000 FEET WITH NO
SIGNIFICANT WEATHER AND/OR OBSTRUCTION TO VISIBILITY.

MIZ047>049-052>055-059>063-066>070-074>076-081>083-311800-
SOUTHEAST LOWER MICHIGAN

CITY           SKY/WX    TMP DP  RH WIND       PRES   REMARKS
ADRIAN         SUNNY     82  67  60 SW9       30.10F
ALMA           CLOUDY    70  65  85 S5        30.11S
ANN ARBOR      MOSUNNY   80  68  66 W8        30.10F
BAD AXE        MOSUNNY   73  66  80 W9        30.08F
DETROIT CITY   SUNNY     80  61  52 W7        30.09S
DETROIT        MOSUNNY   81  67  62 W9        30.09F
FLINT          CLOUDY    72  64  76 SW7       30.11F
GROSSE ILE     MOSUNNY   81  70  69 W7        30.08S
HILLSDALE      MOSUNNY   81  70  69 W5        30.12S
HOWELL         SUNNY     75  67  74 W7        30.11F

CITY           SKY/WX    TMP DP  RH WIND       PRES   REMARKS
JACKSON        PTSUNNY   75  68  78 SW8       30.11F
LAMBERTVILLE   MOSUNNY   83  69  63 W6        30.10F
LANSING        SUNNY     75  66  73 SW6       30.11F
LAPEER         NOT AVBL
MASON          PTSUNNY   75  66  72 W6        30.11S
MONROE         PTSUNNY   82  69  63 SW5       30.08F
MT. CLEMENS    MOSUNNY   74  64  71 W5        30.08F
PONTIAC        MOSUNNY   73  64  73 W5        30.09F
PORT HOPE        N/A     76  66  71 SW8       30.05S
PORT HURON     CLOUDY    72  64  78 NW5       30.09F
TRI CITIES     PTSUNNY   72  64  76 SW10      30.10S
YPSILANTI      MOSUNNY   83  68  60 W9        30.10F
$$
MIZ043>046-050>051-056>058-064>065-071>073-077>080-311800-
SOUTHWEST LOWER MICHIGAN

CITY           SKY/WX    TMP DP  RH WIND       PRES   REMARKS
BATTLE CREEK   PTSUNNY   77  66  68 SW8       30.11F
BENTON HARBOR  MOSUNNY   77  68  73 W9        30.09F
BIG RAPIDS     CLOUDY    72  65  80 SW7       30.09F
COLDWATER      PTSUNNY   81  69  65 W5        30.11S
HOLLAND        MOSUNNY   77  66  68 SW3       30.10F
GRAND RAPIDS   MOSUNNY   76  66  71 W6        30.10F
KALAMAZOO      PTSUNNY   78  66  66 VRB7      30.11S
MARSHALL       CLOUDY    76  68  76 W5        30.11S HAZE
MUSKEGON       PTSUNNY   75  65  70 SW8       30.09F
$$
MIZ016>042-311800-
NORTHERN LOWER MICHIGAN

CITY           SKY/WX    TMP DP  RH WIND       PRES   REMARKS
ALPENA         SUNNY     77  65  66 VRB5      30.04S
BEAVER ISLAND  CLOUDY    67  64  89 SW7G17    30.03R
BELLAIRE       MOSUNNY   77  65  66 SW3       30.04F
CADILLAC       SUNNY     75  65  70 SW10      30.08S
CHARLEVOIX     MOSUNNY   75  67  74 SW9G16    30.06S
FRANKFORT      MOSUNNY   73  66  81 SW13G18   30.06S
GAYLORD        MOSUNNY   74  66  76 SW12      30.06F
GRAYLING       SUNNY     76  64  67 SW7       30.07F
HARBOR SPRINGS MOSUNNY   74  66  77 W6        30.03S
HOUGHTON LAKE  SUNNY     74  65  73 SW3       30.08F
MANISTEE       PTSUNNY   72  64  78 S9        30.07S
OSCODA         SUNNY     80  65  58 SW7       30.04S
PELLSTON       PTSUNNY   75  65  70 SW8       30.03S
TRAVERSE CITY  MOSUNNY   75  64  68 W9        30.04S
$$
MIZ007>008-015-311800-
EASTERN UPPER MICHIGAN

CITY           SKY/WX    TMP DP  RH WIND       PRES   REMARKS
KINROSS        CLOUDY    70  66  88 SW3       30.03R
MACKINAC ISLAN CLOUDY    71  65  83 W12       30.02S
NEWBERRY       CLOUDY    69  65  86 S9        30.01R
S. S. MARIE    CLOUDY    70  65  84 SE5       30.01S
$$
MIZ004>006-011>014-085-311800-
CENTRAL UPPER MICHIGAN

CITY           SKY/WX    TMP DP  RH WIND       PRES   REMARKS
MANISTIQUE     FOG       66  64  93 S8        30.00S VSB 1
ESCANABA       SUNNY     72  64  78 S8        29.99F
MENOMINEE      PTSUNNY   70  63  78 W7        30.01S
SAWYER-GWINN   SUNNY     79  61  53 S8        29.98F
$$
MIZ001>003-009>011-084-311800-
WESTERN UPPER MICHIGAN

CITY           SKY/WX    TMP DP  RH WIND       PRES   REMARKS
IRON MOUNTAIN  SUNNY     79  63  57 S7        29.98F
HOUGHTON       SUNNY     78  64  61 MISG      29.92F
IRONWOOD       SUNNY     77  64  65 S9G17     29.91S
$$

ABBREVIATIONS USED IN REMARKS
   TC - TEMPERATURE IN CELSIUS
  WCI - WIND CHILL INDEX
   HX - HEAT INDEX
  VSB - VISIBILITY




USA.gov is the U.S. government's official web portal to all federal, state and local government web resources and services.